Wind_Speed
19 23 20 19 20 19 20 19 18 19 19 19 19 17 17 16 14 13 13 11 10 11 10 9 9 8 7 8 8 8 9 7 7 8 8 8 6 6 8 8 8 9
20 23 20 19 20 19 19 17 17 17 16 16 16 15 16 15 13 13 13 11 11 11 10 9 9 8 8 8 7 9 10 9 8 8 8 9 8 7 6 6 7 7
21 21 19 19 19 17 15 16 17 16 16 16 15 15 16 14 12 12 12 11 11 10 9 10 10 9 9 9 8 9 10 10 9 8 9 9 8 8 7 6 6 6
19 19 20 19 15 13 15 17 17 17 17 17 15 15 15 14 13 12 11 10 10 10 10 10 9 9 10 10 10 9 10 10 10 9 8 7 7 7 7 6 6 7
17 18 18 15 13 15 17 18 16 16 17 16 15 15 14 14 13 12 10 10 10 10 10 10 9 10 10 10 10 10 9 9 9 8 7 6 6 6 6 6 7 7
16 17 14 13 15 17 17 17 17 17 17 16 15 15 15 14 13 12 11 11 11 11 10 10 10 11 10 9 10 9 8 8 7 6 6 6 5 5 6 6 7 8
13 14 13 14 17 17 16 18 18 18 18 17 16 16 16 14 13 13 12 11 12 11 10 10 10 10 9 9 10 8 6 7 5 4 7 6 5 6 7 7 7 7
9 10 12 13 16 17 17 18 19 18 18 16 16 16 15 14 14 13 11 11 11 11 11 11 10 9 9 9 8 6 7 7 4 4 7 7 5 6 7 7 7 7
12 14 15 14 16 17 17 17 18 17 16 15 15 16 14 13 13 12 11 11 10 10 11 10 10 10 8 8 7 7 7 5 3 6 9 6 5 7 8 7 8 8
18 19 18 16 16 17 16 16 16 16 16 15 15 15 14 13 12 11 10 10 10 10 10 10 10 10 8 7 8 8 7 5 5 9 8 4 5 10 10 8 9 9
23 22 20 17 16 16 17 16 15 15 15 15 15 16 14 13 12 10 10 10 9 9 9 9 10 9 8 8 8 8 8 7 8 8 5 4 8 11 11 9 9 10
26 25 21 17 15 17 18 17 15 15 14 14 15 16 15 14 12 10 9 9 9 9 9 9 10 9 9 9 9 9 9 9 9 7 5 7 9 9 9 9 9 10
27 24 19 17 17 18 18 16 15 14 13 13 13 14 14 13 12 11 9 9 8 9 9 9 10 10 9 10 10 10 9 9 9 7 7 7 6 7 7 7 8 9
24 20 17 17 19 18 17 16 15 14 13 13 13 13 12 11 12 11 10 8 8 8 10 10 9 9 10 10 10 9 9 9 8 7 7 6 5 7 7 6 7 7
20 19 19 19 19 17 16 15 14 13 14 13 12 13 12 10 11 11 9 8 8 9 11 10 9 9 9 9 10 10 8 8 7 6 6 5 4 5 5 4 6 6
16 17 17 18 18 16 15 15 14 12 13 14 13 13 11 10 12 12 9 9 9 10 12 12 10 10 9 9 11 11 8 7 7 5 5 4 3 3 4 3 3 5
15 15 16 16 16 16 16 16 14 12 13 15 15 13 11 11 13 12 10 9 9 10 11 10 9 8 8 9 11 11 8 6 5 3 4 4 3 3 4 4 3 3
14 15 15 14 14 16 18 18 17 17 18 18 17 14 12 12 13 13 12 11 11 10 8 7 6 4 5 7 8 8 7 5 4 2 1 2 3 2 2 5 5 3
15 15 16 14 12 15 18 19 19 19 19 18 17 15 14 15 15 15 14 13 14 12 9 7 5 3 3 4 5 5 3 2 1 3 5 4 3 3 4 7 7 6
15 15 15 13 11 12 16 17 19 19 18 17 15 13 13 13 14 14 13 12 12 11 9 8 6 4 3 2 2 2 2 4 5 6 6 7 7 5 5 6 7 6
12 13 13 12 12 12 13 14 17 18 17 16 15 12 11 10 11 12 11 10 8 7 6 6 5 4 3 1 2 4 5 6 7 8 8 8 9 8 7 7 8 8
14 13 14 14 14 13 11 11 13 15 15 14 13 11 9 9 9 10 10 8 5 4 5 5 4 3 2 2 3 5 7 8 8 8 9 8 7 7 9 10 10 11
20 19 17 15 15 15 13 12 12 12 12 11 9 7 8 9 11 12 11 9 7 5 5 5 4 2 1 2 4 6 7 9 9 8 6 6 6 7 8 9 9 9
22 22 21 18 17 16 15 13 11 11 10 8 6 7 9 11 12 13 12 9 7 6 4 4 3 2 1 2 3 5 6 6 7 5 5 6 7 7 8 8 6 6
22 21 20 20 20 18 16 14 11 9 8 7 6 8 12 14 14 14 13 11 8 7 6 5 5 4 3 2 2 3 4 4 4 3 4 7 8 7 7 7 7 6
22 21 20 20 20 19 18 16 15 12 10 9 9 10 12 14 15 14 15 13 11 9 8 8 8 7 6 4 3 3 3 3 3 3 4 6 8 8 7 5 4 3
Wind_Direction
171 173 169 166 166 165 164 163 164 166 163 160 161 163 161 155 151 149 143 142 140 136 139 141 135 131 130 139 140 138 144 150 151 149 147 149 151 151 157 161 156 152
170 175 173 169 166 162 162 165 162 158 155 153 154 153 150 148 146 144 144 144 141 137 135 135 138 136 135 138 130 127 133 133 133 135 133 131 130 133 143 145 148 153
168 173 172 165 162 162 165 161 152 147 146 145 145 143 142 143 144 146 148 145 140 137 134 133 137 137 135 135 127 121 126 127 128 129 124 121 123 129 132 136 143 147
170 169 163 158 158 161 155 145 139 139 139 137 137 139 142 146 148 146 144 141 137 134 136 138 138 136 137 137 132 129 130 130 128 126 122 120 123 125 126 137 146 147
173 162 155 155 155 150 141 135 134 134 136 136 139 145 148 149 150 145 139 140 139 137 138 140 138 137 138 136 134 133 129 128 131 132 126 123 127 130 127 134 147 156
166 154 148 153 152 145 139 137 138 139 144 147 148 151 154 153 149 145 144 142 141 143 142 141 140 139 139 134 132 133 133 132 135 136 132 130 140 146 134 134 148 157
155 148 148 154 151 148 147 147 147 147 149 151 152 155 158 156 149 146 148 146 145 148 146 145 145 143 140 136 136 139 136 132 136 145 138 134 144 144 131 132 144 151
150 148 148 156 157 156 157 154 151 151 152 152 153 155 160 157 149 147 149 148 148 149 149 150 150 146 143 140 140 131 118 126 148 140 121 121 136 132 121 129 138 144
152 153 151 161 168 166 163 153 147 148 150 151 149 153 160 155 147 148 149 148 147 144 148 153 151 149 148 144 137 122 121 137 137 107 110 125 151 134 120 126 132 137
156 158 158 168 175 171 161 149 147 148 149 150 149 152 156 150 146 149 147 146 146 142 146 153 152 152 150 142 137 134 139 141 112 113 127 149 147 136 126 120 124 128
157 158 161 171 176 168 158 152 153 153 150 151 152 152 152 148 148 151 148 147 149 145 146 150 151 151 149 142 140 143 147 138 127 134 139 91 96 116 121 122 130 131
154 156 159 167 170 162 158 159 158 155 152 151 152 152 152 151 150 152 151 150 151 150 147 149 150 151 149 144 144 148 148 142 140 139 120 97 92 99 110 122 133 133
154 156 159 164 167 160 159 159 156 154 153 150 150 151 153 154 152 152 154 155 156 153 147 148 150 150 149 148 148 150 147 141 140 132 122 121 115 111 112 115 125 130
151 155 155 156 159 159 158 155 153 154 153 151 150 146 147 149 146 149 158 157 153 152 148 148 149 147 151 153 149 147 144 139 137 132 129 129 117 119 126 120 121 129
143 147 146 146 150 155 158 157 156 156 151 149 146 142 145 146 142 148 155 149 147 149 144 140 137 138 148 154 149 145 146 145 144 140 137 142 131 125 133 131 132 141
134 133 132 135 139 144 148 152 155 155 151 150 145 140 144 144 144 151 154 145 141 137 128 121 118 122 130 140 143 144 145 149 156 157 149 157 169 153 155 169 170 177
130 125 123 124 127 130 132 136 140 138 137 139 136 136 142 145 147 153 153 139 123 112 107 106 107 110 117 128 137 142 144 141 144 170 183 181 200 206 198 215 216 193
128 128 126 125 128 133 131 129 127 119 115 120 122 124 130 135 136 137 136 133 127 115 105 105 104 98 116 132 135 138 144 138 118 80 305 211 221 241 308 314 303 284
125 127 129 131 134 134 130 129 127 119 112 112 113 113 115 119 121 122 120 119 119 115 109 111 109 97 119 148 149 146 156 167 126 17 16 5 295 276 319 331 319 285
125 124 125 133 138 133 129 129 128 121 114 111 110 110 110 111 113 116 114 110 112 113 110 110 108 104 106 149 184 202 248 266 280 306 338 352 339 313 284 296 306 287
120 126 124 129 137 138 136 129 122 118 114 112 112 113 111 112 120 123 120 113 115 122 123 120 118 117 119 150 220 248 271 279 283 290 298 315 334 340 328 320 318 313
91 111 120 126 130 133 138 134 126 124 119 112 108 109 110 116 124 124 122 123 132 142 145 144 141 138 156 218 252 268 284 293 293 291 294 305 323 338 341 339 334 330
69 80 92 105 113 117 124 135 143 140 128 116 113 120 122 118 117 117 121 133 147 147 141 137 124 110 222 263 274 278 285 291 292 291 300 314 321 325 327 325 322 330
62 68 75 80 85 93 103 120 139 144 138 135 136 138 128 116 115 118 121 131 139 129 119 116 100 76 339 302 297 288 284 287 290 300 329 341 332 330 336 334 327 336
59 65 72 73 75 79 84 93 107 123 141 150 143 131 119 108 106 110 110 113 117 111 104 98 88 75 48 17 350 321 314 320 324 339 16 19 14 13 7 356 355 356
58 63 69 72 75 79 80 81 84 91 106 112 111 116 114 105 105 111 112 111 110 105 96 87 81 74 61 48 30 9 2 3 5 11 22 31 34 27 8 355 4 13
Height
782 785 787 790 792 795 798 801 803 805 807 809 812 814 815 816 817 818 819 820 820 821 822 823 824 825 826 827 828 829 831 832 833 833 834 834 834 834 834 835 836 837
783 786 788 791 794 796 799 801 804 805 807 809 812 813 815 816 817 818 819 820 821 821 822 823 824 825 826 827 828 829 831 832 832 833 833 833 833 833 834 835 835 836
785 788 790 793 795 798 800 802 804 806 808 810 812 813 815 816 818 819 820 821 821 821 822 823 824 825 826 827 829 829 831 832 832 832 832 832 833 833 834 834 835 836
788 790 793 795 797 799 801 802 804 806 808 810 812 813 815 817 818 820 820 821 821 822 822 823 824 825 826 827 828 830 831 831 832 832 832 832 833 833 834 834 835 836
789 792 794 797 798 800 801 802 804 806 808 810 812 814 816 817 818 819 820 821 822 822 823 824 824 825 826 827 828 829 830 831 831 832 832 832 833 833 834 835 835 836
792 793 796 798 799 800 801 802 804 806 809 811 813 815 816 817 818 819 820 821 822 823 824 825 825 826 826 827 828 829 829 830 831 831 832 832 833 833 834 835 836 837
794 795 796 799 800 801 803 804 805 807 809 811 813 814 816 817 818 819 820 821 822 823 824 825 826 826 827 827 827 828 829 830 830 831 831 832 833 833 834 835 836 837
797 797 798 801 802 803 804 805 806 808 809 811 812 814 815 816 817 818 819 820 821 823 824 825 826 826 827 827 827 828 828 829 830 830 831 832 833 834 834 835 836 838
796 797 799 801 803 804 805 806 807 808 810 811 812 814 815 816 817 818 819 820 821 822 823 824 825 826 826 827 827 828 828 829 830 830 831 832 833 834 835 836 837 838
794 795 798 801 804 805 805 806 808 809 810 811 812 813 815 816 817 818 819 820 821 822 823 824 825 826 826 827 827 828 829 829 830 831 832 833 833 834 835 837 838 839
793 796 798 801 804 805 806 807 808 808 809 810 811 813 814 816 817 818 819 819 820 821 822 823 824 825 826 827 828 828 829 830 831 832 832 833 833 834 836 837 838 840
793 796 798 801 803 804 805 807 807 808 809 810 811 812 814 815 816 818 819 819 820 821 822 823 824 825 826 827 828 829 829 830 831 832 833 834 834 835 837 838 839 840
793 796 798 799 801 803 804 806 807 808 809 810 811 812 813 815 816 817 819 820 821 821 822 824 825 826 827 828 829 829 830 831 832 833 834 835 836 837 838 839 840 841
793 796 797 798 800 802 803 804 806 807 809 810 811 812 813 814 815 817 819 820 821 822 823 825 826 827 828 829 830 830 831 832 833 834 835 836 837 837 838 840 840 841
792 795 796 798 800 801 803 804 805 807 808 810 811 812 814 814 816 818 819 820 821 823 824 825 826 827 828 829 830 831 832 833 834 835 836 837 838 838 839 840 841 842
792 794 796 797 799 800 802 803 805 807 808 810 812 813 814 815 817 818 820 821 822 823 824 825 826 827 828 829 830 831 833 834 835 836 836 838 839 839 840 841 842 842
793 795 797 799 799 800 801 803 805 806 808 810 812 813 815 816 817 819 820 821 822 823 824 825 827 828 829 829 830 832 833 834 835 837 837 838 839 841 842 842 843 843
794 796 798 800 801 801 802 803 805 806 807 809 811 814 815 816 818 819 820 821 823 824 825 826 828 829 829 830 831 832 833 835 836 837 838 839 840 841 843 844 844 844
796 797 798 801 803 804 803 804 805 807 809 810 812 815 816 817 818 819 821 822 823 824 826 827 829 829 830 831 832 833 834 835 836 838 839 840 841 841 843 845 845 845
798 798 800 803 806 807 806 806 807 808 811 813 814 817 818 819 820 821 822 823 824 826 828 829 830 830 831 832 833 834 835 836 837 838 839 841 842 842 843 845 846 847
801 801 803 805 807 809 810 810 810 810 813 815 817 819 821 822 822 823 824 825 826 828 829 830 831 831 832 833 834 835 836 837 838 838 839 841 842 843 844 845 845 847
804 804 806 807 809 810 811 812 813 814 816 818 819 821 823 824 824 824 825 827 828 829 830 831 832 832 832 834 834 835 836 837 838 838 839 840 842 843 843 843 843 845
807 807 807 809 810 811 812 813 815 817 818 819 821 823 824 825 825 825 827 828 829 830 831 831 832 832 833 834 834 835 836 837 838 838 839 840 841 842 841 841 842 842
810 810 810 811 811 812 814 815 817 818 819 820 822 824 825 825 825 826 827 829 830 831 831 831 832 833 833 834 834 835 836 837 838 838 839 840 840 840 840 840 840 841
813 813 813 813 813 814 815 817 818 819 820 821 823 824 825 825 826 827 829 830 830 831 832 832 833 833 834 834 835 836 837 837 838 838 839 840 840 840 840 840 840 841
816 816 816 816 816 816 817 819 820 820 821 822 824 825 826 827 828 829 830 831 832 832 833 833 834 834 835 836 836 837 837 838 838 838 839 839 840 840 840 840 841 842